User: anonymous   Login
Location: Red Deer
(52.2681°N, 113.8112°W)
Time: 05:25:37
(UTC-06:00)
Language:

JY1SAT - Orbit

View from above orbital plane
View from above orbital plane
View from above satellite
View from above satellite

Ground track
Ground track

The orbit data is extracted from the following two-line orbital elements,

1 43803U 18099AX  22141.73117246  .00006096  00000-0  53434-3 0  9999
2 43803  97.6195 209.4275 0014354   4.3206 355.8137 14.96935768189073
Epoch (UTC): 21 May 2022 17:32:53
Eccentricity: 0.0014354
inclination: 97.6195°
perigee height: 566 km
apogee height: 586 km
right ascension of ascending node: 209.4275°
argument of perigee: 4.3206°
revolutions per day: 14.96935768
mean anomaly at epoch: 355.8137°
orbit number at epoch: 18907

The dashed part of the orbit path shows where the satellite is in the earth's shadow,  

DLR